| time (UTC) | temp F | wind direction | speed knots | gust knots | rain 1hr in | rain 24hr in | rain mn in | humidity % | barometer mb |
| 20260505124602 | 58 | 49 | 0.0 | 1.7 | 0.00 | 0.31 | 0.31 | 93 | 1006.6 |
| 20260505123044 | 58 | 50 | 0.0 | 1.7 | 0.00 | 0.31 | 0.31 | 94 | 1006.6 |
| 20260505121551 | 58 | 54 | 0.0 | 0.0 | 0.00 | 0.31 | 0.31 | 94 | 1006.6 |
| 20260505120129 | 57 | 25 | 0.0 | 0.0 | 0.00 | 0.31 | 0.31 | 94 | 1007.0 |
| 20260505114522 | 57 | 40 | 0.0 | 0.0 | 0.00 | 0.31 | 0.31 | 94 | 1007.1 |
| 20260505113109 | 57 | 57 | 0.0 | 0.0 | 0.00 | 0.31 | 0.31 | 94 | 1006.9 |
| 20260505111530 | 57 | 75 | 0.0 | 0.0 | 0.00 | 0.31 | 0.31 | 94 | 1006.6 |
| 20260505101548 | 58 | 223 | 0.0 | 0.0 | 0.10 | 0.31 | 0.31 | 93 | 1007.2 |
| 20260505100012 | 58 | 223 | 0.0 | 0.0 | 0.15 | 0.30 | 0.30 | 93 | 1007.8 |
| 20260505094613 | 58 | 223 | 0.0 | 0.0 | 0.27 | 0.27 | 0.27 | 92 | 1007.8 |
| 20260505093119 | 58 | 203 | 0.0 | 0.0 | 0.25 | 0.25 | 0.25 | 91 | 1007.9 |
| 20260505091553 | 59 | 242 | 0.0 | 7.0 | 0.21 | 0.21 | 0.21 | 89 | 1007.8 |
| 20260505090010 | 63 | 249 | 0.0 | 12.2 | 0.14 | 0.14 | 0.14 | 78 | 1007.1 |
| 20260505084604 | 67 | 268 | 0.0 | 0.9 | 0.00 | 0.00 | 0.00 | 57 | 1006.0 |
| 20260505083019 | 67 | 272 | 0.0 | 0.9 | 0.00 | 0.00 | 0.00 | 57 | 1005.3 |
| 20260505081600 | 67 | 303 | 0.0 | 0.9 | 0.00 | 0.00 | 0.00 | 57 | 1005.1 |
| 20260505080007 | 67 | 295 | 0.0 | 0.9 | 0.00 | 0.00 | 0.00 | 57 | 1004.5 |
| 20260505074514 | 67 | 92 | 0.0 | 0.0 | 0.00 | 0.00 | 0.00 | 57 | 1004.5 |
| 20260505073117 | 67 | 164 | 0.0 | 6.1 | 0.00 | 0.00 | 0.00 | 56 | 1004.6 |
| 20260505071544 | 67 | 162 | 0.0 | 0.9 | 0.00 | 0.00 | 0.00 | 57 | 1004.5 |
| 20260505070107 | 67 | 339 | 0.0 | 0.9 | 0.00 | 0.00 | 0.00 | 59 | 1004.5 |
| 20260505064702 | 67 | 99 | 0.0 | 0.9 | 0.00 | 0.00 | 0.00 | 58 | 1004.6 |
| 20260505063107 | 66 | 84 | 0.0 | 1.7 | 0.00 | 0.00 | 0.00 | 59 | 1004.7 |
| 20260505061544 | 66 | 200 | 0.0 | 0.0 | 0.00 | 0.00 | 0.00 | 59 | 1004.7 |
| 20260505060004 | 66 | 62 | 0.0 | 0.9 | 0.00 | 0.00 | 0.00 | 59 | 1004.8 |
| 20260505054542 | 67 | 110 | 0.0 | 0.0 | 0.00 | 0.00 | 0.00 | 59 | 1004.6 |
| 20260505053016 | 67 | 74 | 0.0 | 1.7 | 0.00 | 0.00 | 0.00 | 58 | 1004.4 |
| 20260505051507 | 66 | 116 | 0.0 | 1.7 | 0.00 | 0.00 | 0.00 | 58 | 1004.4 |
| 20260505050110 | 66 | 77 | 0.0 | 0.0 | 0.00 | 0.00 | 0.00 | 59 | 1004.2 |
| 20260505041514 | 65 | 4 | 0.0 | 0.0 | 0.00 | 0.00 | 0.00 | 63 | 1004.5 |
| 20260505040114 | 62 | 65 | 0.0 | 0.0 | 0.00 | 0.00 | 0.00 | 71 | 1004.8 |
| 20260505034524 | 61 | 52 | 0.0 | 0.0 | 0.00 | 0.00 | 0.00 | 75 | 1004.9 |
| 20260505033107 | 61 | 137 | 0.0 | 0.0 | 0.00 | 0.00 | 0.00 | 77 | 1005.0 |
| 20260505031506 | 61 | 52 | 0.0 | 0.0 | 0.00 | 0.00 | 0.00 | 76 | 1004.8 |
| 20260505030129 | 62 | 52 | 0.0 | 0.0 | 0.00 | 0.00 | 0.00 | 72 | 1004.7 |
| 20260505024502 | 63 | 50 | 0.0 | 0.0 | 0.00 | 0.00 | 0.00 | 71 | 1004.5 |
| 20260505023100 | 63 | 50 | 0.0 | 0.0 | 0.00 | 0.00 | 0.00 | 70 | 1004.4 |
| 20260505021544 | 64 | 45 | 0.0 | 0.0 | 0.00 | 0.00 | 0.00 | 69 | 1004.2 |
| 20260505020020 | 67 | 46 | 0.0 | 0.0 | 0.00 | 0.00 | 0.00 | 61 | 1003.8 |
| 20260505014518 | 68 | 47 | 0.0 | 0.0 | 0.00 | 0.00 | 0.00 | 58 | 1003.6 |
| 20260505013039 | 68 | 57 | 0.0 | 0.0 | 0.00 | 0.00 | 0.00 | 57 | 1003.3 |
| 20260505011555 | 69 | 49 | 0.0 | 0.0 | 0.00 | 0.00 | 0.00 | 58 | 1003.3 |
| 20260505010018 | 69 | 67 | 0.0 | 0.0 | 0.00 | 0.00 | 0.00 | 54 | 1003.2 |
| 20260505004551 | 71 | 68 | 0.0 | 0.0 | 0.00 | 0.00 | 0.00 | 52 | 1003.3 |
| 20260505003014 | 71 | 135 | 0.0 | 0.0 | 0.00 | 0.00 | 0.00 | 53 | 1003.3 |
| 20260505001508 | 73 | 73 | 0.0 | 0.0 | 0.00 | 0.00 | 0.00 | 51 | 1003.4 |
| 20260505000003 | 74 | 199 | 0.0 | 0.0 | 0.00 | 0.00 | 0.00 | 47 | 1003.6 |
| 20260504234502 | 75 | 31 | 0.0 | 6.1 | 0.00 | 0.00 | 0.00 | 47 | 1003.8 |
| 20260504233024 | 75 | 256 | 0.0 | 4.3 | 0.00 | 0.00 | 0.00 | 48 | 1004.0 |
| 20260504231626 | 75 | 152 | 0.0 | 1.7 | 0.00 | 0.00 | 0.00 | 49 | 1004.0 |
| 20260504230013 | 76 | 169 | 0.0 | 0.9 | 0.00 | 0.00 | 0.00 | 46 | 1004.4 |
| 20260504224615 | 76 | 56 | 0.0 | 3.5 | 0.00 | 0.00 | 0.00 | 46 | 1004.6 |
| 20260504223014 | 77 | 184 | 0.0 | 1.7 | 0.00 | 0.00 | 0.00 | 43 | 1004.7 |
| 20260504221612 | 77 | 160 | 0.9 | 7.0 | 0.00 | 0.00 | 0.00 | 42 | 1004.8 |
| 20260504220106 | 77 | 259 | 0.0 | 9.6 | 0.00 | 0.00 | 0.00 | 41 | 1004.7 |
| 20260504214604 | 78 | 185 | 0.0 | 3.5 | 0.00 | 0.00 | 0.00 | 41 | 1004.8 |
| 20260504213027 | 79 | 179 | 0.0 | 7.8 | 0.00 | 0.00 | 0.00 | 38 | 1004.7 |
| 20260504211547 | 79 | 166 | 0.0 | 7.8 | 0.00 | 0.00 | 0.00 | 41 | 1004.8 |
| 20260504210018 | 79 | 251 | 0.0 | 4.3 | 0.00 | 0.00 | 0.00 | 45 | 1005.1 |
| 20260504204511 | 80 | 100 | 0.0 | 0.9 | 0.00 | 0.00 | 0.00 | 43 | 1005.1 |
| 20260504203108 | 79 | 256 | 0.0 | 5.2 | 0.00 | 0.00 | 0.00 | 43 | 1005.1 |
| 20260504201556 | 79 | 22 | 0.0 | 5.2 | 0.00 | 0.00 | 0.00 | 46 | 1005.4 |
| 20260504200015 | 78 | 242 | 0.0 | 0.0 | 0.00 | 0.00 | 0.00 | 45 | 1005.5 |
| 20260504194611 | 76 | 230 | 0.0 | 0.0 | 0.00 | 0.00 | 0.00 | 50 | 1005.9 |
| 20260504193027 | 76 | 251 | 0.0 | 6.1 | 0.00 | 0.00 | 0.00 | 48 | 1006.2 |
| 20260504191623 | 77 | 202 | 0.0 | 0.0 | 0.00 | 0.00 | 0.00 | 48 | 1006.5 |
| 20260504190019 | 76 | 249 | 0.0 | 4.3 | 0.00 | 0.00 | 0.00 | 48 | 1006.7 |
| 20260504184538 | 76 | 182 | 0.0 | 2.6 | 0.00 | 0.00 | 0.00 | 52 | 1006.8 |
| 20260504183107 | 73 | 206 | 0.0 | 0.0 | 0.00 | 0.00 | 0.00 | 55 | 1006.9 |
| 20260504181547 | 72 | 264 | 0.0 | 3.5 | 0.00 | 0.00 | 0.00 | 55 | 1007.0 |
| 20260504180029 | 72 | 285 | 0.0 | 3.5 | 0.00 | 0.00 | 0.00 | 56 | 1007.0 |
| 20260504174603 | 71 | 224 | 0.0 | 0.9 | 0.00 | 0.00 | 0.00 | 56 | 1007.1 |
| 20260504173104 | 71 | 70 | 0.0 | 5.2 | 0.00 | 0.00 | 0.00 | 56 | 1007.1 |
| 20260504171550 | 71 | 268 | 0.0 | 0.9 | 0.00 | 0.00 | 0.00 | 55 | 1007.1 |